Total_Precipitation_Accumulation
0.00 0.00 0.00 0.00 0.00 0.00 0.00 0.00 0.00 0.00 0.00 0.00 0.00 0.00 0.00 0.00 0.00 0.00 0.00 0.00 0.00 0.00 0.00 0.00 0.00 0.00 0.01 0.02 0.03 0.06 0.07 0.09 0.17 0.31 0.31 0.29 0.30 0.33
0.00 0.00 0.00 0.00 0.00 0.00 0.00 0.00 0.00 0.00 0.00 0.00 0.00 0.00 0.00 0.00 0.00 0.00 0.00 0.00 0.00 0.00 0.00 0.00 0.00 0.00 0.00 0.01 0.03 0.05 0.08 0.12 0.21 0.33 0.35 0.43 0.52 0.55
0.00 0.00 0.00 0.00 0.00 0.00 0.00 0.00 0.00 0.00 0.00 0.00 0.00 0.00 0.00 0.00 0.00 0.00 0.00 0.00 0.00 0.00 0.00 0.00 0.01 0.01 0.01 0.02 0.03 0.05 0.09 0.14 0.25 0.47 0.60 0.73 0.76 0.76
0.00 0.00 0.00 0.00 0.00 0.00 0.00 0.00 0.00 0.00 0.00 0.00 0.00 0.00 0.00 0.00 0.00 0.00 0.00 0.00 0.00 0.00 0.00 0.00 0.01 0.01 0.01 0.02 0.04 0.08 0.15 0.18 0.27 0.43 0.72 0.86 0.83 0.66
0.00 0.00 0.00 0.00 0.00 0.00 0.00 0.00 0.00 0.00 0.00 0.00 0.00 0.00 0.00 0.00 0.00 0.00 0.00 0.00 0.00 0.00 0.00 0.00 0.00 0.01 0.01 0.04 0.10 0.18 0.25 0.27 0.36 0.68 0.62 0.72 0.75 0.59
0.00 0.00 0.00 0.00 0.00 0.00 0.00 0.00 0.00 0.00 0.00 0.00 0.00 0.00 0.00 0.00 0.00 0.00 0.00 0.00 0.00 0.00 0.00 0.00 0.01 0.01 0.02 0.05 0.10 0.15 0.22 0.24 0.43 0.63 0.65 0.93 0.95 0.94
0.00 0.00 0.00 0.00 0.00 0.00 0.00 0.00 0.00 0.00 0.00 0.00 0.00 0.00 0.00 0.00 0.00 0.01 0.01 0.00 0.00 0.00 0.00 0.00 0.00 0.00 0.03 0.10 0.13 0.19 0.32 0.43 0.43 0.49 0.73 1.46 1.59 1.61
0.00 0.00 0.00 0.00 0.00 0.00 0.00 0.00 0.00 0.00 0.00 0.00 0.00 0.00 0.00 0.00 0.01 0.02 0.03 0.03 0.02 0.01 0.01 0.01 0.01 0.03 0.05 0.11 0.22 0.32 0.68 0.59 0.48 0.56 0.69 0.88 1.07 1.17
0.00 0.00 0.00 0.00 0.00 0.00 0.00 0.00 0.00 0.00 0.00 0.00 0.00 0.00 0.00 0.00 0.01 0.01 0.03 0.04 0.04 0.01 0.03 0.03 0.02 0.04 0.11 0.22 0.34 0.65 0.90 0.58 0.44 0.46 0.47 0.51 0.54 0.40
0.01 0.01 0.02 0.02 0.01 0.01 0.01 0.01 0.02 0.01 0.00 0.00 0.00 0.00 0.00 0.00 0.01 0.04 0.04 0.03 0.02 0.02 0.06 0.10 0.06 0.11 0.29 0.36 0.47 0.62 0.71 0.44 0.33 0.32 0.30 0.22 0.15 0.05
0.08 0.06 0.06 0.05 0.03 0.03 0.02 0.02 0.01 0.00 0.00 0.00 0.00 0.01 0.02 0.04 0.05 0.07 0.04 0.10 0.08 0.03 0.06 0.16 0.13 0.24 0.31 0.30 0.35 0.53 0.65 0.39 0.30 0.30 0.21 0.12 0.06 0.02
0.12 0.08 0.08 0.04 0.02 0.01 0.01 0.00 0.00 0.00 0.00 0.00 0.00 0.01 0.01 0.03 0.07 0.08 0.14 0.27 0.24 0.20 0.09 0.30 0.16 0.26 0.29 0.27 0.29 0.37 0.35 0.36 0.24 0.18 0.13 0.08 0.03 0.00
0.03 0.02 0.02 0.03 0.02 0.01 0.00 0.01 0.01 0.01 0.00 0.00 0.00 0.01 0.01 0.02 0.04 0.07 0.12 0.30 0.39 0.29 0.17 0.48 0.25 0.25 0.30 0.22 0.20 0.26 0.29 0.24 0.14 0.12 0.09 0.05 0.02 0.00
0.03 0.01 0.01 0.03 0.01 0.01 0.00 0.00 0.01 0.01 0.01 0.01 0.00 0.01 0.01 0.02 0.03 0.07 0.10 0.16 0.27 0.32 0.18 0.39 0.43 0.35 0.34 0.21 0.20 0.26 0.33 0.24 0.14 0.08 0.04 0.04 0.01 0.00
0.01 0.01 0.00 0.01 0.00 0.00 0.00 0.00 0.01 0.01 0.01 0.01 0.01 0.01 0.01 0.02 0.04 0.05 0.05 0.10 0.12 0.15 0.21 0.28 0.37 0.33 0.34 0.25 0.18 0.19 0.25 0.31 0.19 0.07 0.03 0.00 0.00 0.00
0.01 0.01 0.00 0.00 0.00 0.00 0.00 0.00 0.01 0.01 0.01 0.01 0.01 0.01 0.02 0.03 0.05 0.09 0.09 0.09 0.08 0.08 0.11 0.16 0.20 0.23 0.20 0.14 0.14 0.13 0.13 0.17 0.20 0.10 0.04 0.02 0.00 0.00
0.00 0.00 0.00 0.00 0.00 0.00 0.00 0.01 0.01 0.00 0.00 0.00 0.02 0.03 0.04 0.06 0.05 0.08 0.09 0.07 0.08 0.07 0.05 0.08 0.11 0.13 0.14 0.13 0.12 0.13 0.11 0.12 0.13 0.10 0.03 0.02 0.00 0.00
0.01 0.00 0.01 0.01 0.02 0.02 0.02 0.02 0.00 0.00 0.01 0.02 0.04 0.05 0.08 0.09 0.08 0.07 0.07 0.06 0.06 0.05 0.06 0.09 0.10 0.09 0.08 0.09 0.10 0.13 0.14 0.13 0.15 0.11 0.04 0.02 0.01 0.00
0.01 0.01 0.02 0.03 0.02 0.02 0.01 0.01 0.01 0.01 0.01 0.04 0.08 0.09 0.11 0.08 0.08 0.08 0.06 0.05 0.05 0.04 0.05 0.06 0.09 0.11 0.09 0.08 0.10 0.13 0.11 0.14 0.13 0.14 0.09 0.01 0.00 0.00
0.02 0.03 0.03 0.03 0.01 0.01 0.01 0.01 0.02 0.01 0.02 0.05 0.07 0.09 0.10 0.10 0.08 0.08 0.07 0.06 0.06 0.04 0.03 0.04 0.07 0.10 0.13 0.12 0.10 0.13 0.16 0.13 0.11 0.10 0.08 0.01 0.01 0.02
0.02 0.02 0.01 0.01 0.00 0.01 0.01 0.02 0.02 0.04 0.06 0.07 0.07 0.08 0.10 0.11 0.09 0.08 0.06 0.05 0.05 0.04 0.04 0.04 0.06 0.09 0.10 0.10 0.10 0.14 0.22 0.20 0.15 0.09 0.06 0.03 0.02 0.02
0.04 0.02 0.00 0.00 0.00 0.01 0.02 0.03 0.04 0.05 0.05 0.05 0.06 0.09 0.10 0.12 0.12 0.08 0.07 0.06 0.04 0.04 0.04 0.03 0.04 0.07 0.09 0.10 0.11 0.12 0.19 0.25 0.24 0.12 0.05 0.02 0.01 0.02
0.02 0.01 0.00 0.00 0.00 0.01 0.02 0.03 0.05 0.05 0.06 0.08 0.08 0.10 0.11 0.11 0.10 0.09 0.07 0.05 0.04 0.04 0.04 0.04 0.04 0.06 0.08 0.11 0.12 0.16 0.16 0.19 0.20 0.11 0.09 0.03 0.00 0.00